IGO2002 VOBL-VOCB

Flight info

Callsign IGO2002
Flight time 0h 42m
Altitude 24000
Route AKTIM8A AKTIM W118 CCB
Aircraft A20N/M-SDE2E3FGHIRWXY/LB1

Departure

Time 2026-05-07 05:15
Airport Kempegowda International Airport Bengaluru (VOBL)

Arrival

Time 2026-05-07 05:58
Airport Coimbatore International Airport (VOCB)
Time Latitude Longitude Altitude Speed Heading
2026-05-07 04:13 13.20342 77.71479 2949 ft 0 kts 360°
2026-05-07 04:56 13.20328 77.71479 2949 ft 2 kts 360°
2026-05-07 04:56 13.20313 77.71479 2950 ft 2 kts
2026-05-07 04:57 13.20299 77.71479 2951 ft 2 kts 360°
2026-05-07 04:57 13.20286 77.71479 2951 ft 2 kts
2026-05-07 04:57 13.20272 77.71482 2952 ft 2 kts 330°
2026-05-07 04:57 13.20260 77.71492 2953 ft 2 kts 306°
2026-05-07 04:58 13.20253 77.71506 2954 ft 2 kts 281°
2026-05-07 04:58 13.20253 77.71518 2952 ft 2 kts 264°
2026-05-07 04:58 13.20253 77.71526 2951 ft 1 kts 270°
2026-05-07 04:58 13.20253 77.71528 2951 ft 0 kts 270°
2026-05-07 05:03 13.20253 77.71529 2951 ft 1 kts 270°
2026-05-07 05:03 13.20253 77.71522 2952 ft 1 kts 271°
2026-05-07 05:03 13.20255 77.71493 2953 ft 8 kts 273°
2026-05-07 05:04 13.20258 77.71407 2954 ft 14 kts 269°
2026-05-07 05:04 13.20270 77.71316 2956 ft 11 kts 279°
2026-05-07 05:04 13.20277 77.71241 2958 ft 9 kts 271°
2026-05-07 05:04 13.20277 77.71179 2960 ft 8 kts 270°
2026-05-07 05:05 13.20277 77.71127 2962 ft 6 kts 271°
2026-05-07 05:05 13.20278 77.71088 2963 ft 4 kts 270°
2026-05-07 05:05 13.20278 77.71056 2965 ft 5 kts 270°
2026-05-07 05:05 13.20279 77.70987 2966 ft 12 kts 270°
2026-05-07 05:06 13.20279 77.70906 2969 ft 12 kts 270°
2026-05-07 05:06 13.20279 77.70857 2971 ft 13 kts 270°
2026-05-07 05:06 13.20280 77.70764 2975 ft 11 kts 270°
2026-05-07 05:06 13.20281 77.70676 2978 ft 13 kts 271°
2026-05-07 05:07 13.20283 77.70576 2980 ft 15 kts 271°
2026-05-07 05:07 13.20284 77.70472 2982 ft 12 kts 270°
2026-05-07 05:07 13.20303 77.70402 2983 ft 9 kts 321°
2026-05-07 05:07 13.20367 77.70393 2984 ft 9 kts
2026-05-07 05:08 13.20428 77.70393 2985 ft 8 kts
2026-05-07 05:08 13.20482 77.70393 2986 ft 7 kts 357°
2026-05-07 05:08 13.20526 77.70367 2987 ft 8 kts 300°
2026-05-07 05:08 13.20530 77.70283 2989 ft 14 kts 271°
2026-05-07 05:09 13.20531 77.70169 2991 ft 16 kts 270°
2026-05-07 05:09 13.20531 77.70052 2990 ft 17 kts 270°
2026-05-07 05:09 13.20532 77.69924 2989 ft 17 kts 270°
2026-05-07 05:09 13.20532 77.69796 2990 ft 17 kts 270°
2026-05-07 05:10 13.20534 77.69675 2992 ft 16 kts 272°
2026-05-07 05:10 13.20537 77.69566 2994 ft 14 kts 269°
2026-05-07 05:10 13.20536 77.69463 2996 ft 13 kts 269°
2026-05-07 05:10 13.20536 77.69372 3000 ft 11 kts 270°
2026-05-07 05:11 13.20536 77.69295 3002 ft 10 kts 272°
2026-05-07 05:11 13.20539 77.69213 3004 ft 12 kts 270°
2026-05-07 05:11 13.20539 77.69109 3006 ft 17 kts 271°
2026-05-07 05:11 13.20541 77.68972 3008 ft 20 kts 270°
2026-05-07 05:12 13.20542 77.68829 3011 ft 16 kts 271°
2026-05-07 05:12 13.20543 77.68706 3011 ft 15 kts 270°
2026-05-07 05:12 13.20571 77.68620 3011 ft 11 kts 331°
2026-05-07 05:12 13.20644 77.68613 3012 ft 9 kts
2026-05-07 05:13 13.20701 77.68617 3012 ft 6 kts 11°
2026-05-07 05:13 13.20718 77.68655 3012 ft 7 kts 96°
2026-05-07 05:13 13.20716 77.68687 3011 ft 0 kts 91°
2026-05-07 05:14 13.20716 77.68708 3011 ft 9 kts 91°
2026-05-07 05:14 13.20713 77.68903 3011 ft 59 kts 90°
2026-05-07 05:15 13.20708 77.69571 3000 ft 126 kts 90°
2026-05-07 05:15 13.20700 77.70682 3021 ft 176 kts 90°
2026-05-07 05:15 13.20691 77.71929 3602 ft 177 kts 91°
2026-05-07 05:15 13.20679 77.73190 4223 ft 181 kts 91°
2026-05-07 05:16 13.20675 77.74481 4867 ft 184 kts 89°
2026-05-07 05:16 13.20861 77.75824 5251 ft 198 kts 73°
2026-05-07 05:16 13.21420 77.77148 5739 ft 207 kts 66°
2026-05-07 05:16 13.21850 77.78621 6031 ft 227 kts 78°
2026-05-07 05:17 13.22171 77.80260 6089 ft 238 kts 79°
2026-05-07 05:17 13.22509 77.81915 5919 ft 237 kts 76°
2026-05-07 05:17 13.22909 77.83540 5977 ft 237 kts 76°
2026-05-07 05:17 13.23347 77.85207 6183 ft 244 kts 75°
2026-05-07 05:18 13.23791 77.86877 6914 ft 247 kts 75°
2026-05-07 05:18 13.24238 77.88554 7747 ft 246 kts 75°
2026-05-07 05:18 13.24690 77.90260 8201 ft 246 kts 75°
2026-05-07 05:18 13.25131 77.91931 8083 ft 243 kts 75°
2026-05-07 05:19 13.25573 77.93604 8056 ft 243 kts 75°
2026-05-07 05:19 13.26011 77.95300 8057 ft 243 kts 75°
2026-05-07 05:19 13.26446 77.96967 8062 ft 243 kts 77°
2026-05-07 05:19 13.26740 77.98682 8043 ft 243 kts 85°
2026-05-07 05:20 13.26794 78.00394 8031 ft 243 kts 90°
2026-05-07 05:20 13.26741 78.02135 8027 ft 243 kts 92°
2026-05-07 05:20 13.26680 78.03876 8030 ft 244 kts 91°
2026-05-07 05:20 13.26649 78.05631 8301 ft 249 kts 90°
2026-05-07 05:21 13.26468 78.07381 9122 ft 249 kts 110°
2026-05-07 05:21 13.23828 78.09441 10318 ft 261 kts 178°
2026-05-07 05:21 13.22017 78.09348 10819 ft 264 kts 184°
2026-05-07 05:22 13.20191 78.09187 11084 ft 266 kts 184°
2026-05-07 05:22 13.18332 78.09062 11054 ft 266 kts 182°
2026-05-07 05:22 13.16510 78.08992 11007 ft 265 kts 180°
2026-05-07 05:22 13.14673 78.08968 11008 ft 265 kts 180°
2026-05-07 05:23 13.12826 78.08941 11016 ft 265 kts 184°
2026-05-07 05:23 13.11061 78.08444 11010 ft 266 kts 213°
2026-05-07 05:23 13.09840 78.07088 11024 ft 264 kts 248°
2026-05-07 05:23 13.09496 78.05254 11501 ft 265 kts 267°
2026-05-07 05:24 13.09351 78.03349 12036 ft 276 kts 265°
2026-05-07 05:24 13.09126 78.01327 12454 ft 292 kts 264°
2026-05-07 05:24 13.08884 77.99366 12745 ft 309 kts 264°
2026-05-07 05:24 13.08651 77.97623 12977 ft 324 kts 263°
2026-05-07 05:25 13.08329 77.95278 13282 ft 341 kts 263°
2026-05-07 05:25 13.07935 77.92831 13595 ft 358 kts 260°
2026-05-07 05:25 13.07371 77.90294 13882 ft 374 kts 256°
2026-05-07 05:25 13.06607 77.87665 14164 ft 389 kts 253°
2026-05-07 05:26 13.05775 77.85008 14639 ft 397 kts 253°
2026-05-07 05:26 13.04940 77.82313 15266 ft 400 kts 253°
2026-05-07 05:26 13.04062 77.79591 15884 ft 404 kts 253°
2026-05-07 05:26 13.03206 77.76868 16494 ft 407 kts 253°
2026-05-07 05:27 13.02196 77.74155 17055 ft 412 kts 242°
2026-05-07 05:27 13.00412 77.71869 17592 ft 417 kts 221°
2026-05-07 05:27 12.97898 77.70315 18106 ft 422 kts 200°
2026-05-07 05:27 12.95067 77.69682 18651 ft 424 kts 184°
2026-05-07 05:28 12.92127 77.69428 19170 ft 428 kts 185°
2026-05-07 05:28 12.89186 77.69086 19807 ft 429 kts 186°
2026-05-07 05:28 12.86191 77.68707 20347 ft 432 kts 186°
2026-05-07 05:28 12.83211 77.68319 20876 ft 436 kts 186°
2026-05-07 05:29 12.80229 77.67929 21411 ft 439 kts 186°
2026-05-07 05:29 12.77185 77.67531 21943 ft 442 kts 186°
2026-05-07 05:29 12.74138 77.67133 22462 ft 446 kts 186°
2026-05-07 05:29 12.71039 77.66728 22974 ft 449 kts 186°
2026-05-07 05:30 12.67967 77.66328 23464 ft 452 kts 186°
2026-05-07 05:30 12.64837 77.65919 23898 ft 455 kts 186°
2026-05-07 05:30 12.61712 77.65512 24033 ft 456 kts 186°
2026-05-07 05:30 12.58565 77.65102 24035 ft 455 kts 186°
2026-05-07 05:31 12.55427 77.64693 24037 ft 455 kts 186°
2026-05-07 05:31 12.52323 77.64288 24038 ft 455 kts 186°
2026-05-07 05:31 12.49176 77.63879 24038 ft 455 kts 186°
2026-05-07 05:31 12.46068 77.63474 24038 ft 455 kts 186°
2026-05-07 05:32 12.42932 77.63065 24038 ft 455 kts 186°
2026-05-07 05:32 12.39821 77.62662 24036 ft 455 kts 186°
2026-05-07 05:32 12.36664 77.62247 24037 ft 455 kts 186°
2026-05-07 05:32 12.33554 77.61840 24038 ft 455 kts 186°
2026-05-07 05:33 12.30438 77.61433 24038 ft 455 kts 186°
2026-05-07 05:33 12.27287 77.61022 24038 ft 455 kts 186°
2026-05-07 05:33 12.24177 77.60617 24038 ft 455 kts 186°
2026-05-07 05:33 12.21019 77.60207 24038 ft 455 kts 186°
2026-05-07 05:34 12.17917 77.59804 24038 ft 455 kts 186°
2026-05-07 05:34 12.14756 77.59393 24038 ft 455 kts 186°
2026-05-07 05:34 12.11661 77.58991 24038 ft 455 kts 186°
2026-05-07 05:34 12.08523 77.58477 24037 ft 456 kts 191°
2026-05-07 05:35 12.05483 77.57635 24037 ft 457 kts 198°
2026-05-07 05:35 12.02546 77.56443 24038 ft 457 kts 204°
2026-05-07 05:35 11.99691 77.55007 24039 ft 457 kts 206°
2026-05-07 05:35 11.96860 77.53517 24039 ft 457 kts 207°
2026-05-07 05:36 11.94050 77.52028 24039 ft 457 kts 207°
2026-05-07 05:36 11.91224 77.50536 24038 ft 457 kts 207°
2026-05-07 05:36 11.88419 77.49061 24038 ft 457 kts 207°
2026-05-07 05:36 11.85598 77.47585 24038 ft 457 kts 206°
2026-05-07 05:37 11.82783 77.46114 24038 ft 457 kts 206°
2026-05-07 05:37 11.79957 77.44640 24038 ft 457 kts 206°
2026-05-07 05:37 11.77103 77.43153 23850 ft 456 kts 206°
2026-05-07 05:37 11.74299 77.41693 23601 ft 454 kts 206°
2026-05-07 05:38 11.71518 77.40245 23353 ft 453 kts 206°
2026-05-07 05:38 11.68702 77.38779 23100 ft 451 kts 206°
2026-05-07 05:38 11.65929 77.37336 22836 ft 449 kts 206°
2026-05-07 05:38 11.63178 77.35904 22455 ft 445 kts 206°
2026-05-07 05:39 11.60426 77.34473 21568 ft 448 kts 206°
2026-05-07 05:39 11.57646 77.33028 20547 ft 451 kts 206°
2026-05-07 05:39 11.54895 77.31597 19497 ft 441 kts 207°
2026-05-07 05:39 11.52210 77.30201 18226 ft 437 kts 207°
2026-05-07 05:40 11.49522 77.28804 17027 ft 431 kts 207°
2026-05-07 05:40 11.46911 77.27447 15891 ft 424 kts 207°
2026-05-07 05:40 11.44346 77.26114 14997 ft 410 kts 207°
2026-05-07 05:40 11.41873 77.24829 14302 ft 397 kts 207°
2026-05-07 05:41 11.39419 77.23555 13597 ft 392 kts 207°
2026-05-07 05:41 11.37015 77.22310 12890 ft 391 kts 207°
2026-05-07 05:41 11.35069 77.21302 12319 ft 391 kts 207°
2026-05-07 05:41 11.32708 77.20080 11636 ft 378 kts 207°
2026-05-07 05:42 11.30397 77.18881 10947 ft 364 kts 207°
2026-05-07 05:42 11.28209 77.17747 10524 ft 344 kts 207°
2026-05-07 05:42 11.26159 77.16685 10158 ft 326 kts 206°
2026-05-07 05:42 11.24223 77.15683 10098 ft 301 kts 206°
2026-05-07 05:43 11.22402 77.14741 10071 ft 292 kts 206°
2026-05-07 05:43 11.20586 77.13802 9812 ft 294 kts 206°
2026-05-07 05:43 11.18760 77.12857 9453 ft 293 kts 206°
2026-05-07 05:43 11.16954 77.11923 9110 ft 291 kts 206°
2026-05-07 05:44 11.15170 77.11000 8774 ft 289 kts 206°
2026-05-07 05:44 11.13375 77.10072 8437 ft 287 kts 206°
2026-05-07 05:44 11.11620 77.09164 8107 ft 285 kts 206°
2026-05-07 05:44 11.09843 77.08246 7771 ft 283 kts 206°
2026-05-07 05:45 11.08091 77.07341 7647 ft 271 kts 206°
2026-05-07 05:45 11.06457 77.06495 7631 ft 256 kts 206°
2026-05-07 05:45 11.04883 77.05682 7606 ft 246 kts 206°
2026-05-07 05:45 11.03318 77.05016 7559 ft 245 kts 192°
2026-05-07 05:46 11.01629 77.04863 7567 ft 244 kts 178°
2026-05-07 05:46 10.99952 77.04920 7573 ft 244 kts 176°
2026-05-07 05:46 10.98261 77.05006 7575 ft 244 kts 176°
2026-05-07 05:46 10.96574 77.05086 7576 ft 244 kts 176°
2026-05-07 05:47 10.94863 77.05159 7576 ft 244 kts 176°
2026-05-07 05:47 10.93185 77.05225 7576 ft 244 kts 177°
2026-05-07 05:47 10.91483 77.05287 7576 ft 244 kts 177°
2026-05-07 05:47 10.89801 77.05347 7556 ft 242 kts 177°
2026-05-07 05:48 10.88103 77.05409 7205 ft 247 kts 177°
2026-05-07 05:48 10.86390 77.05469 6761 ft 252 kts 177°
2026-05-07 05:48 10.84632 77.05532 6312 ft 256 kts 177°
2026-05-07 05:48 10.82850 77.05595 5904 ft 257 kts 177°
2026-05-07 05:49 10.81095 77.05655 5787 ft 246 kts 179°
2026-05-07 05:49 10.79482 77.05321 5758 ft 237 kts 212°
2026-05-07 05:49 10.78412 77.04060 5775 ft 239 kts 251°
2026-05-07 05:49 10.78295 77.02396 5795 ft 240 kts 279°
2026-05-07 05:50 10.78591 77.00726 5794 ft 240 kts 281°
2026-05-07 05:50 10.78942 76.99056 5787 ft 238 kts 284°
2026-05-07 05:50 10.79371 76.97452 5577 ft 236 kts 287°
2026-05-07 05:50 10.79901 76.95873 5272 ft 235 kts 291°
2026-05-07 05:51 10.80529 76.94338 5172 ft 236 kts 295°
2026-05-07 05:51 10.81255 76.92841 5072 ft 236 kts 298°
2026-05-07 05:51 10.82075 76.91398 4973 ft 236 kts 302°
2026-05-07 05:51 10.82993 76.90001 4872 ft 236 kts 306°
2026-05-07 05:52 10.83990 76.88682 4773 ft 235 kts 310°
2026-05-07 05:52 10.85128 76.87488 4683 ft 234 kts 329°
2026-05-07 05:52 10.86662 76.87071 4679 ft 233 kts
2026-05-07 05:52 10.88121 76.87691 4554 ft 231 kts 43°
2026-05-07 05:53 10.89187 76.88858 4378 ft 224 kts 50°
2026-05-07 05:53 10.90188 76.90048 4204 ft 216 kts 49°
2026-05-07 05:53 10.91060 76.91258 4114 ft 210 kts 58°
2026-05-07 05:53 10.91863 76.92499 4147 ft 207 kts 54°
2026-05-07 05:54 10.92723 76.93584 4018 ft 192 kts 49°
2026-05-07 05:54 10.93617 76.94566 3681 ft 186 kts 46°
2026-05-07 05:54 10.94496 76.95475 3431 ft 176 kts 45°
2026-05-07 05:54 10.95185 76.96180 3246 ft 166 kts 45°
2026-05-07 05:55 10.95979 76.96998 3041 ft 159 kts 45°
2026-05-07 05:55 10.96749 76.97795 2851 ft 158 kts 45°
2026-05-07 05:55 10.97517 76.98594 2666 ft 157 kts 45°
2026-05-07 05:55 10.97958 76.99052 2564 ft 150 kts 45°
2026-05-07 05:56 10.98425 76.99537 2439 ft 146 kts 45°
2026-05-07 05:56 10.99133 77.00272 2273 ft 145 kts 45°
2026-05-07 05:56 10.99834 77.01000 2093 ft 145 kts 45°
2026-05-07 05:56 11.00541 77.01733 1890 ft 144 kts 45°
2026-05-07 05:57 11.01238 77.02454 1662 ft 144 kts 45°
2026-05-07 05:57 11.01940 77.03181 1467 ft 144 kts 45°
2026-05-07 05:57 11.02627 77.03892 1334 ft 133 kts 45°
2026-05-07 05:57 11.03179 77.04466 1306 ft 88 kts 45°
2026-05-07 05:58 11.03482 77.04778 1296 ft 59 kts 45°
2026-05-07 05:58 11.03662 77.04965 1292 ft 44 kts 45°
2026-05-07 05:58 11.03834 77.05146 1289 ft 29 kts 46°
2026-05-07 05:58 11.03974 77.05290 1288 ft 27 kts 45°
2026-05-07 05:59 11.04075 77.05395 1287 ft 18 kts 40°
2026-05-07 05:59 11.04168 77.05383 1287 ft 13 kts 315°
2026-05-07 05:59 11.04213 77.05328 1289 ft 7 kts 287°
2026-05-07 05:59 11.04190 77.05286 1290 ft 7 kts 225°
2026-05-07 06:00 11.04142 77.05235 1291 ft 13 kts 226°
2026-05-07 06:00 11.04061 77.05151 1292 ft 19 kts 225°
2026-05-07 06:00 11.03961 77.05048 1294 ft 21 kts 226°
2026-05-07 06:00 11.03854 77.04935 1296 ft 23 kts 225°
2026-05-07 06:01 11.03744 77.04821 1297 ft 22 kts 225°
2026-05-07 06:01 11.03637 77.04710 1297 ft 21 kts 226°
2026-05-07 06:01 11.03539 77.04608 1299 ft 19 kts 225°
2026-05-07 06:01 11.03442 77.04507 1302 ft 20 kts 225°
2026-05-07 06:02 11.03346 77.04408 1306 ft 19 kts 225°
2026-05-07 06:02 11.03244 77.04318 1310 ft 18 kts 205°
2026-05-07 06:02 11.03145 77.04245 1313 ft 17 kts 225°
2026-05-07 06:02 11.03065 77.04161 1317 ft 12 kts 226°
2026-05-07 06:03 11.03012 77.04107 1320 ft 5 kts 225°
2026-05-07 06:03 11.02990 77.04085 1321 ft 4 kts 224°
2026-05-07 06:03 11.02975 77.04058 1322 ft 4 kts 277°
2026-05-07 06:03 11.02994 77.04038 1323 ft 3 kts 322°
2026-05-07 06:04 11.03013 77.04022 1323 ft 2 kts 315°
2026-05-07 06:04 11.03017 77.04017 1323 ft 1 kts 316°
2026-05-07 06:04 11.03022 77.04012 1323 ft 0 kts 316°